1511535600.55,31359,11.0,73640.5,-4.41,-32.35,-32.35,0,*5C
1511535601.8,31360,11.0,73636.3,-4.39,-32.45,-32.35,0,*5E
1511535603.08,31361,11.0,73642.5,-4.39,-32.45,-32.45,0,*58
1511535604.32,31362,11.0,73638.3,-4.39,-32.29,-32.13,0,*52
1511535605.56,31363,11.06,73640.5,-4.39,-32.29,-32.13,0,*53
1511535606.83,31364,11.0,73640.8,-4.39,-32.29,-32.29,0,*5D
1511535608.07,31365,11.0,73640.0,-4.39,-32.23,-32.29,0,*56
1511535609.31,31366,11.0,73638.8,-4.39,-32.29,-32.23,0,*55
1511535610.51,31367,11.0,73640.3,-4.41,-32.35,-32.35,0,*51
1511535611.75,31368,11.06,73640.8,-4.39,-32.29,-32.13,0,*58
1511535612.98,31369,11.06,73642.3,-4.41,-32.13,-31.95,0,*52
1511535614.22,31370,11.06,73640.0,-4.41,-32.13,-32.07,0,*52
1511535615.44,31371,11.0,73642.0,-4.41,-32.45,-32.23,0,*56
1511535616.67,31372,11.06,73644.3,-4.41,-32.23,-31.95,0,*5B
1511535617.9,31373,11.06,73642.0,-4.41,-32.29,-32.23,0,*5E
1511535619.14,31374,11.06,73644.5,-4.39,-32.29,-32.23,0,*56
1511535620.37,31375,11.0,73640.0,-4.41,-31.95,-31.79,0,*50
1511535621.6,31376,11.0,73638.5,-4.41,-32.13,-32.07,0,*54
1511535622.82,31377,11.0,73638.5,-4.39,-32.23,-32.13,0,*5C
1511535624.02,31378,11.0,73638.0,-4.41,-32.23,-32.23,0,*5F
1511535625.22,31379,11.0,73638.8,-4.41,-32.35,-32.23,0,*59
1511535626.45,31380,11.0,73634.8,-4.41,-32.45,-32.35,0,*5F
1511535627.68,31381,11.06,73636.8,-4.41,-32.13,-31.95,0,*54
1511535628.88,31382,11.0,73638.8,-4.41,-32.23,-32.13,0,*59
1511535630.09,31383,11.0,73634.8,-4.39,-32.35,-32.23,0,*53
1511535631.29,31384,11.0,73634.3,-4.41,-32.23,-32.23,0,*5C
1511535632.51,31385,11.0,73632.3,-4.39,-32.35,-32.23,0,*55
1511535633.76,31386,11.0,73632.3,-4.41,-32.45,-32.29,0,*54
1511535634.98,31387,11.0,73628.3,-4.41,-32.29,-32.13,0,*56
1511535636.23,31388,11.0,73632.5,-4.43,-32.35,-32.19,0,*5C
1511535637.47,31389,11.06,73634.8,-4.41,-32.07,-31.79,0,*5B
1511535638.72,31390,11.0,73630.8,-4.41,-32.29,-32.07,0,*55
1511535639.91,31391,11.0,73630.0,-4.41,-32.35,-32.13,0,*5C
1511535641.13,31392,11.0,73630.8,-4.41,-32.35,-32.29,0,*56
1511535642.41,31393,11.0,73634.5,-4.43,-32.19,-31.85,0,*5E
1511535643.69,31394,11.0,73634.3,-4.43,-32.19,-31.95,0,*58
1511535644.94,31395,11.0,73624.8,-4.43,-32.51,-32.29,0,*51
1511535646.19,31396,11.0,73624.3,-4.43,-32.51,-32.29,0,*52
1511535647.44,31397,11.0,73624.0,-4.43,-32.29,-32.13,0,*55
1511535648.66,31398,11.0,73626.5,-4.43,-32.35,-32.13,0,*57
1511535649.87,31399,11.0,73628.5,-4.43,-32.35,-32.01,0,*55
1511535651.16,31400,11.0,73638.5,-4.43,-32.19,-31.95,0,*52
1511535652.41,31401,11.0,73644.3,-4.43,-32.13,-31.85,0,*58
1511535653.68,31402,11.0,73638.5,-4.43,-32.19,-31.85,0,*51
1511535654.97,31403,11.0,73628.3,-4.43,-32.19,-31.95,0,*51
1511535656.21,31404,11.0,73632.8,-4.43,-32.29,-32.01,0,*5B
1511535657.46,31405,11.0,73632.8,-4.43,-32.19,-32.01,0,*59
1511535658.7,31406,11.06,73632.0,-4.45,-32.39,-32.19,0,*57
1511535659.95,31407,11.0,73630.3,-4.43,-32.35,-32.19,0,*5C
1511535661.2,31408,11.0,73636.3,-4.43,-32.39,-32.19,0,*5F
1511535662.45,31409,11.06,73636.3,-4.43,-32.13,-31.85,0,*50
1511535663.73,31410,11.0,73628.5,-4.43,-32.19,-31.95,0,*53
1511535665.01,31411,11.0,73628.3,-4.43,-32.19,-31.85,0,*53
1511535666.26,31412,11.0,73632.8,-4.43,-32.13,-31.95,0,*5B
1511535667.55,31413,11.06,73638.5,-4.43,-32.19,-31.95,0,*50
1511535668.8,31414,11.0,73636.5,-4.43,-32.19,-32.01,0,*59
1511535670.03,31415,11.06,73638.5,-4.45,-32.01,-31.73,0,*51
1511535671.26,31416,11.0,73634.3,-4.43,-32.01,-31.79,0,*5E
1511535672.54,31417,11.0,73634.0,-4.43,-32.19,-31.85,0,*55
1511535673.81,31418,11.0,73634.0,-4.43,-32.29,-31.95,0,*58
1511535675.01,31419,11.0,73632.8,-4.45,-32.35,-32.01,0,*5C
1511535676.26,31420,11.0,73632.8,-4.41,-32.29,-31.95,0,*51
1511535677.49,31421,11.0,73632.8,-4.41,-32.13,-31.91,0,*5D
1511535678.74,31422,11.0,73636.3,-4.43,-31.79,-31.39,0,*51
1511535680.0,31423,11.0,73634.3,-4.45,-32.19,-31.85,0,*54
1511535681.27,31424,11.0,73634.0,-4.43,-32.19,-31.85,0,*55
1511535682.51,31425,11.0,73636.0,-4.45,-32.01,-31.57,0,*54
1511535683.79,31426,11.0,73638.0,-4.43,-31.85,-31.51,0,*58
1511535685.06,31427,11.0,73636.5,-4.43,-32.19,-31.85,0,*56
1511535686.28,31428,11.0,73638.3,-4.43,-32.35,-32.13,0,*5B
1511535687.53,31429,11.0,73632.0,-4.43,-32.35,-31.95,0,*57
1511535688.79,31430,11.0,73634.8,-4.45,-32.45,-32.07,0,*56
1511535690.01,31431,11.0,73632.8,-4.45,-32.23,-31.91,0,*5B
1511535691.3,31432,11.0,73636.5,-4.43,-32.19,-31.95,0,*53
1511535692.57,31433,11.0,73636.8,-4.43,-32.19,-31.85,0,*53
1511535693.85,31434,11.06,73638.0,-4.43,-32.19,-31.95,0,*55
1511535695.13,31435,11.06,73638.3,-4.43,-32.19,-31.85,0,*55
1511535696.41,31436,11.0,73636.8,-4.43,-31.85,-31.51,0,*59
1511535697.64,31437,11.0,73638.3,-4.43,-32.13,-31.79,0,*5E
1511535698.92,31438,11.0,73636.3,-4.43,-31.95,-31.61,0,*55
1511535700.15,31439,11.0,73634.8,-4.43,-31.79,-31.29,0,*5A
1511535701.43,31440,11.0,73634.3,-4.43,-31.95,-31.61,0,*5A
1511535702.69,31441,11.0,73628.3,-4.43,-32.19,-31.79,0,*55
1511535703.93,31442,11.0,73628.3,-4.43,-32.35,-31.95,0,*5A
1511535705.21,31443,11.06,73626.5,-4.43,-32.29,-31.85,0,*57
1511535706.46,31444,11.0,73628.3,-4.43,-32.13,-31.51,0,*50
1511535707.71,31445,11.0,73626.8,-4.43,-32.19,-31.79,0,*51
1511535708.96,31446,11.0,73634.5,-4.43,-32.19,-31.79,0,*52
1511535710.21,31447,11.06,73642.0,-4.43,-32.29,-31.79,0,*50
1511535711.48,31448,11.0,73636.8,-4.43,-32.29,-31.85,0,*5C
1511535712.73,31449,11.0,73634.8,-4.43,-32.35,-31.85,0,*50
1511535713.98,31450,11.0,73634.3,-4.43,-32.35,-31.95,0,*59
1511535715.2,31451,11.0,73636.0,-4.45,-32.35,-31.91,0,*5A
1511535716.47,31452,11.06,73640.5,-4.43,-32.29,-31.95,0,*56
1511535717.68,31453,11.0,73636.0,-4.45,-32.39,-32.01,0,*5E
1511535718.9,31454,11.0,73636.3,-4.45,-32.39,-31.91,0,*53
1511535720.15,31455,11.0,73636.5,-4.43,-32.35,-31.85,0,*5D
1511535721.38,31456,11.0,73636.3,-4.45,-32.39,-31.91,0,*51
1511535722.6,31457,11.0,73638.5,-4.45,-32.23,-31.91,0,*5B
1511535723.83,31458,11.0,73640.8,-4.45,-32.23,-31.85,0,*51
1511535725.05,31459,11.0,73636.3,-4.45,-32.29,-31.79,0,*59
1511535726.28,31460,11.0,73636.5,-4.45,-32.19,-31.67,0,*5F
1511535727.53,31461,11.0,73632.3,-4.43,-32.19,-31.79,0,*57
1511535728.81,31462,11.0,73634.5,-4.43,-32.19,-31.85,0,*57
1511535730.03,31463,11.0,73636.0,-4.45,-32.23,-31.85,0,*59
1511535731.26,31464,11.0,73636.0,-4.45,-32.23,-31.85,0,*5E
1511535732.48,31465,11.0,73636.5,-4.45,-32.23,-31.73,0,*56
1511535733.7,31466,11.0,73638.0,-4.45,-32.23,-31.85,0,*5C
1511535734.92,31467,11.0,73636.5,-4.45,-32.35,-31.85,0,*5A
1511535736.17,31468,11.06,73640.0,-4.43,-32.29,-31.79,0,*5D
1511535737.39,31469,11.0,73636.3,-4.45,-32.29,-31.79,0,*5A
1511535738.61,31470,11.0,73636.5,-4.45,-32.35,-31.85,0,*5C
1511535739.84,31471,11.0,73638.3,-4.45,-32.35,-31.85,0,*5D
1511535741.08,31472,11.0,73634.3,-4.47,-32.35,-31.85,0,*5C
1511535742.31,31473,11.0,73634.0,-4.45,-32.39,-31.85,0,*53
1511535743.53,31474,11.0,73634.5,-4.45,-32.35,-31.85,0,*58
1511535744.77,31475,11.0,73630.8,-4.47,-32.35,-31.85,0,*5B
1511535745.99,31476,11.0,73628.5,-4.47,-32.23,-31.67,0,*53
1511535747.23,31477,11.0,73630.5,-4.47,-32.35,-31.73,0,*50
1511535748.47,31478,11.0,73636.8,-4.47,-32.35,-31.73,0,*5F
1511535749.68,31479,11.0,73638.0,-4.47,-32.35,-31.67,0,*5B
1511535750.95,31480,11.0,73636.5,-4.47,-32.19,-31.57,0,*50
1511535752.21,31481,11.0,73634.0,-4.47,-31.91,-31.17,0,*56
1511535753.48,31482,11.0,73624.0,-4.47,-31.57,-30.95,0,*54
1511535754.71,31483,11.0,73624.3,-4.45,-31.67,-30.95,0,*54
1511535755.95,31484,11.0,73630.0,-4.45,-31.57,-30.83,0,*57
1511535757.17,31485,11.0,73628.3,-4.45,-31.67,-30.95,0,*52
1511535758.41,31486,11.0,73628.5,-4.45,-31.91,-31.17,0,*53
1511535759.67,31487,11.0,73630.8,-4.45,-32.07,-31.51,0,*5C
1511535760.9,31488,11.0,73630.5,-4.43,-32.13,-31.29,0,*5F
1511535762.13,31489,11.0,73632.8,-4.45,-32.07,-31.33,0,*56
1511535763.34,31490,11.0,73634.0,-4.45,-32.01,-31.17,0,*5E
1511535764.55,31491,11.0,73632.5,-4.45,-32.01,-31.33,0,*59
1511535765.76,31492,11.0,73634.5,-4.45,-32.01,-31.33,0,*5A
1511535766.99,31493,11.0,73634.8,-4.45,-32.01,-31.51,0,*5F
1511535768.23,31494,11.0,73632.0,-4.45,-31.85,-31.17,0,*55
1511535769.51,31495,11.0,73632.0,-4.43,-31.85,-31.11,0,*54
1511535770.75,31496,11.0,73632.5,-4.43,-32.01,-31.45,0,*59
1511535772.01,31497,11.0,73632.5,-4.43,-32.19,-31.45,0,*51
1511535773.23,31498,11.0,73632.0,-4.45,-32.23,-31.57,0,*52
1511535774.42,31499,11.0,73634.8,-4.45,-32.23,-31.67,0,*50
1511535775.65,31500,11.0,73636.8,-4.45,-32.23,-31.57,0,*52
1511535776.84,31501,11.0,73634.8,-4.45,-32.23,-31.67,0,*50
1511535778.04,31502,11.0,73638.5,-4.45,-32.23,-31.67,0,*53
1511535779.27,31503,11.0,73636.5,-4.45,-32.23,-31.51,0,*57
1511535780.53,31504,11.0,73636.0,-4.45,-32.07,-31.51,0,*56
1511535781.81,31505,11.0,73632.5,-4.43,-31.85,-31.11,0,*5C
1511535783.01,31506,11.0,73630.5,-4.45,-32.23,-31.33,0,*56
1511535784.21,31507,11.0,73632.0,-4.45,-32.23,-31.33,0,*57
1511535785.44,31508,11.0,73628.8,-4.45,-32.07,-31.33,0,*5E
1511535786.67,31509,11.0,73634.0,-4.45,-32.19,-31.33,0,*50
1511535787.9,31510,11.0,73634.5,-4.45,-32.19,-31.45,0,*59
1511535789.11,31511,11.0,73632.8,-4.45,-32.23,-31.29,0,*5B
1511535790.39,31512,11.0,73630.5,-4.43,-31.95,-31.11,0,*5B
1511535791.63,31513,11.0,73634.8,-4.45,-32.07,-31.29,0,*5F
1511535792.83,31514,11.0,73638.8,-4.45,-32.23,-31.33,0,*55
1511535794.05,31515,11.0,73638.8,-4.45,-32.23,-31.57,0,*56
1511535795.27,31516,11.0,73634.3,-4.45,-32.23,-31.51,0,*53
1511535796.51,31517,11.0,73638.3,-4.45,-32.19,-31.17,0,*59
1511535797.77,31518,11.0,73636.3,-4.45,-31.39,-30.61,0,*57
1511535799.01,31519,11.0,73636.5,-4.45,-31.57,-30.67,0,*58
1511535800.25,31520,11.0,73636.8,-4.43,-31.45,-30.67,0,*57
1511535801.51,31521,11.0,73634.8,-4.43,-31.45,-30.61,0,*50
1511535802.76,31522,11.0,73634.5,-4.43,-31.79,-30.95,0,*57
1511535804.04,31523,11.0,73636.5,-4.43,-31.85,-30.95,0,*55
1511535805.25,31524,11.0,73632.3,-4.41,-31.79,-31.01,0,*5F
1511535806.48,31525,11.0,73634.0,-4.45,-32.01,-31.11,0,*57
1511535807.74,31526,11.0,73628.8,-4.43,-32.01,-31.11,0,*52
1511535808.98,31527,11.0,73628.3,-4.45,-32.07,-31.17,0,*55
1511535810.26,31528,11.0,73628.8,-4.43,-31.95,-31.11,0,*52
1511535811.54,31529,11.0,73632.5,-4.43,-31.95,-30.95,0,*5E
1511535812.77,31530,11.0,73638.8,-4.45,-31.85,-31.01,0,*5D
1511535814.01,31531,11.0,73636.5,-4.45,-31.85,-31.01,0,*5C
1511535815.28,31532,11.0,73636.8,-4.43,-31.85,-30.95,0,*55
1511535816.55,31533,11.0,73634.5,-4.43,-31.79,-30.73,0,*5F
1511535817.83,31534,11.0,73632.0,-4.43,-31.51,-30.73,0,*52
1511535819.07,31535,11.0,73630.0,-4.41,-31.57,-30.67,0,*52
1511535820.31,31536,11.0,73632.3,-4.41,-31.61,-30.83,0,*5E
1511535821.59,31537,11.0,73632.0,-4.43,-31.95,-31.11,0,*5C
1511535822.88,31538,11.0,73636.5,-4.43,-31.95,-30.89,0,*53
1511535824.14,31539,11.0,73636.5,-4.43,-31.95,-31.05,0,*57
1511535825.34,31540,11.0,73640.5,-4.41,-32.13,-31.17,0,*55
1511535826.6,31541,11.0,73640.3,-4.43,-31.85,-31.05,0,*59
1511535827.89,31542,11.0,73638.5,-4.43,-31.85,-30.89,0,*5F
1511535829.18,31543,11.0,73634.8,-4.43,-31.85,-30.89,0,*5E
1511535830.46,31544,11.0,73640.5,-4.43,-31.85,-30.89,0,*59
1511535831.75,31545,11.0,73636.3,-4.43,-31.85,-30.89,0,*58
1511535833.01,31546,11.0,73636.5,-4.43,-31.67,-30.73,0,*52
1511535834.22,31547,11.0,73636.3,-4.41,-31.79,-30.83,0,*51
1511535835.51,31548,11.0,73640.8,-4.43,-31.85,-30.89,0,*55
1511535836.77,31549,11.0,73636.8,-4.43,-32.13,-31.11,0,*58
1511535838.04,31550,11.0,73638.0,-4.43,-31.95,-30.95,0,*50
1511535839.3,31551,11.0,73638.3,-4.43,-31.67,-30.73,0,*54
1511535840.51,31552,11.0,73638.0,-4.45,-31.67,-30.67,0,*54
1511535841.8,31553,11.0,73634.3,-4.43,-31.85,-30.89,0,*5F
1511535843.0,31554,11.0,73632.0,-4.45,-32.13,-31.05,0,*57
1511535844.29,31555,11.0,73638.5,-4.43,-31.95,-30.89,0,*58
1511535845.52,31556,11.0,73634.5,-4.41,-31.91,-31.01,0,*5C
1511535846.81,31557,11.0,73634.0,-4.43,-31.95,-30.89,0,*5A
1511535848.07,31558,11.0,73630.5,-4.43,-32.01,-30.89,0,*5B
1511535849.31,31559,11.0,73632.3,-4.43,-32.01,-31.05,0,*5F
1511535850.54,31560,11.0,73632.8,-4.45,-32.07,-31.01,0,*51
1511535851.83,31561,11.0,73630.8,-4.43,-31.85,-30.89,0,*5E
1511535853.11,31562,11.0,73626.8,-4.43,-31.95,-30.89,0,*5C
1511535854.38,31563,11.0,73630.0,-4.43,-31.79,-30.77,0,*5E
1511535855.64,31564,11.0,73626.5,-4.43,-31.67,-30.61,0,*51
1511535856.93,31565,11.0,73628.8,-4.43,-31.85,-30.77,0,*5B
1511535858.18,31566,11.0,73636.5,-4.43,-32.01,-30.95,0,*5B
1511535859.47,31567,11.0,73638.8,-4.39,-32.07,-30.89,0,*5C
1511535860.76,31568,11.0,73640.3,-4.43,-31.95,-30.77,0,*57
1511535862.02,31569,11.0,73642.5,-4.43,-31.79,-30.77,0,*54
1511535863.26,31570,11.0,73638.3,-4.41,-31.45,-30.55,0,*51
1511535864.49,31571,11.0,73638.5,-4.41,-31.45,-30.39,0,*5A
1511535865.74,31572,11.0,73636.8,-4.41,-31.57,-30.51,0,*54
1511535867.01,31573,11.0,73636.0,-4.43,-31.79,-30.73,0,*5B
1511535868.27,31574,11.0,73634.5,-4.43,-31.79,-30.77,0,*58
1511535869.53,31575,11.0,73638.5,-4.43,-31.79,-30.77,0,*59
1511535870.75,31576,11.0,73634.0,-4.41,-31.79,-30.67,0,*59
1511535872.01,31577,11.0,73638.5,-4.41,-31.91,-30.73,0,*5B
1511535873.26,31578,11.0,73638.5,-4.41,-31.39,-30.39,0,*58
1511535874.5,31579,11.0,73632.8,-4.41,-31.73,-30.67,0,*5C
1511535875.76,31580,11.0,73634.3,-4.43,-31.79,-30.73,0,*57
1511535877.0,31581,11.0,73638.3,-4.41,-31.79,-30.73,0,*54
1511535878.28,31582,11.0,73634.3,-4.43,-31.61,-30.55,0,*58
1511535879.54,31583,11.0,73632.5,-4.43,-31.45,-30.55,0,*5F
1511535880.79,31584,11.0,73634.3,-4.41,-31.39,-30.51,0,*55
1511535882.04,31585,11.0,73634.8,-4.41,-31.73,-30.55,0,*5E
1511535883.32,31586,11.0,73632.3,-4.39,-31.73,-30.55,0,*52
1511535884.6,31587,11.0,73632.0,-4.39,-31.57,-30.55,0,*55
1511535885.88,31588,11.0,73638.3,-4.43,-31.61,-30.55,0,*52
1511535887.16,31589,11.0,73638.0,-4.43,-31.85,-30.73,0,*5D
1511535888.38,31590,11.0,73636.5,-4.41,-31.79,-30.67,0,*51
1511535889.63,31591,11.0,73634.0,-4.41,-31.39,-30.39,0,*5F
1511535890.88,31592,11.0,73630.3,-4.41,-31.61,-30.55,0,*5B
1511535892.15,31593,11.0,73630.5,-4.41,-31.95,-30.73,0,*55
1511535893.39,31594,11.0,73630.5,-4.41,-31.95,-30.83,0,*5D
1511535894.63,31595,11.0,73634.0,-4.41,-31.95,-30.83,0,*5C
1511535895.92,31596,11.0,73628.8,-4.43,-31.95,-30.89,0,*57
1511535897.18,31597,11.0,73632.3,-4.43,-31.79,-30.73,0,*51
1511535898.47,31598,11.0,73644.0,-4.43,-31.95,-30.89,0,*59
1511535899.73,31599,11.0,73636.5,-4.43,-31.79,-30.61,0,*5C
1511535901.01,31600,11.0,73624.5,-4.43,-31.61,-30.55,0,*51
1511535902.29,31601,11.0,73626.3,-4.43,-31.61,-30.55,0,*50
1511535903.54,31602,11.0,73626.0,-4.43,-31.67,-30.55,0,*55
1511535904.8,31603,11.0,73628.5,-4.45,-31.73,-30.51,0,*53
1511535906.08,31604,11.0,73628.5,-4.43,-31.61,-30.55,0,*55
1511535907.34,31605,11.0,73628.5,-4.45,-31.73,-30.61,0,*56
1511535908.6,31606,11.0,73628.8,-4.43,-31.79,-30.61,0,*59
1511535909.89,31607,11.0,73628.3,-4.43,-31.85,-30.73,0,*58
1511535911.15,31608,11.0,73628.5,-4.41,-31.57,-30.51,0,*5A
1511535912.38,31609,11.0,73632.0,-4.41,-31.79,-30.55,0,*53
1511535913.64,31610,11.0,73632.8,-4.43,-31.79,-30.61,0,*5E
1511535914.9,31611,11.0,73634.3,-4.43,-31.79,-30.73,0,*5C
1511535916.17,31612,11.0,73632.8,-4.39,-31.73,-30.55,0,*5C
1511535917.41,31613,11.0,73636.5,-4.41,-31.91,-30.67,0,*5F
1511535918.63,31614,11.0,73634.0,-4.41,-31.79,-30.67,0,*5E
1511535919.86,31615,11.0,73632.5,-4.41,-31.79,-30.55,0,*5E
1511535921.14,31616,11.0,73632.0,-4.43,-31.85,-30.61,0,*5B
1511535922.43,31617,11.0,73638.3,-4.43,-31.85,-30.61,0,*5A
1511535923.69,31618,11.0,73634.8,-4.43,-31.79,-30.73,0,*55
1511535924.91,31619,11.0,73630.8,-4.45,-32.01,-30.83,0,*51
1511535926.15,31620,11.0,73632.3,-4.45,-31.85,-30.67,0,*5E
1511535927.44,31621,11.0,73636.8,-4.43,-31.85,-30.61,0,*5F
1511535928.73,31622,11.0,73634.8,-4.43,-31.85,-30.61,0,*5C
1511535929.99,31623,11.0,73634.3,-4.43,-31.79,-30.73,0,*5D
1511535931.22,31624,11.0,73636.5,-4.45,-31.51,-30.33,0,*52
1511535932.47,31625,11.0,73638.8,-4.43,-31.67,-30.55,0,*50
1511535933.72,31626,11.0,73640.3,-4.43,-31.51,-30.27,0,*53
1511535934.97,31627,11.0,73634.8,-4.43,-31.45,-30.39,0,*58
1511535936.2,31628,11.0,73632.8,-4.43,-31.67,-30.45,0,*5C
1511535937.44,31629,11.0,73636.0,-4.45,-31.91,-30.67,0,*52
1511535938.7,31630,11.0,73636.5,-4.43,-31.79,-30.61,0,*5C
1511535939.95,31631,11.0,73634.5,-4.43,-31.67,-30.55,0,*55
1511535941.2,31632,11.0,73630.8,-4.43,-31.67,-30.55,0,*56
1511535942.48,31633,11.0,73634.0,-4.43,-31.61,-30.55,0,*51
1511535943.7,31634,11.0,73638.5,-4.45,-31.67,-30.51,0,*52
1511535944.96,31635,11.0,73640.0,-4.45,-31.57,-30.51,0,*50
1511535946.19,31636,11.0,73640.8,-4.43,-31.29,-30.27,0,*5D
1511535947.39,31637,11.0,73634.5,-4.45,-31.17,-29.95,0,*56
1511535948.62,31638,11.0,73634.8,-4.45,-31.39,-30.33,0,*51
1511535949.83,31639,11.0,73632.0,-4.45,-31.45,-30.27,0,*5E
1511535951.09,31640,11.0,73632.0,-4.43,-31.61,-30.45,0,*54
1511535952.32,31641,11.0,73630.8,-4.45,-31.57,-30.45,0,*56
1511535953.55,31642,11.0,73628.0,-4.43,-31.33,-30.27,0,*55
1511535954.82,31643,11.0,73628.3,-4.43,-31.51,-30.55,0,*55
1511535956.05,31644,11.0,73624.3,-4.43,-31.29,-30.27,0,*58
1511535957.28,31645,11.0,73626.8,-4.45,-31.23,-30.23,0,*51
1511535958.54,31646,11.0,73632.8,-4.43,-31.23,-30.23,0,*54
1511535959.75,31647,11.0,73628.5,-4.45,-31.33,-30.45,0,*52
1511535961.03,31648,11.0,73626.0,-4.43,-31.23,-30.05,0,*5E
1511535962.26,31649,11.0,73616.5,-4.43,-31.45,-30.45,0,*5B
1511535963.49,31650,11.0,73618.3,-4.43,-31.33,-30.27,0,*56
1511535964.74,31651,11.0,73628.5,-4.43,-31.29,-30.17,0,*5F
1511535965.97,31652,11.0,73632.3,-4.43,-31.33,-30.27,0,*54
1511535967.17,31653,11.0,73628.0,-4.45,-31.33,-30.23,0,*57
1511535968.43,31654,11.0,73630.3,-4.43,-31.33,-30.39,0,*5D
1511535969.66,31655,11.0,73636.5,-4.43,-31.45,-30.27,0,*52
1511535970.88,31656,11.0,73628.5,-4.43,-31.29,-30.23,0,*5F
1511535972.11,31657,11.0,73632.0,-4.43,-31.29,-30.27,0,*5A
1511535973.36,31658,11.0,73634.8,-4.43,-31.33,-30.39,0,*51
1511535974.62,31659,11.0,73630.5,-4.43,-31.33,-30.17,0,*5C
1511535975.88,31660,11.0,73632.3,-4.43,-31.29,-30.17,0,*5D
1511535977.11,31661,11.0,73634.5,-4.45,-31.51,-30.45,0,*52
1511535978.31,31662,11.0,73630.3,-4.41,-31.01,-29.83,0,*52
1511535979.52,31663,11.0,73630.0,-4.41,-30.83,-29.83,0,*58
1511535980.72,31664,11.0,73630.8,-4.41,-31.17,-30.11,0,*50
1511535981.95,31665,11.0,73632.5,-4.39,-31.29,-30.33,0,*53
1511535983.18,31666,11.0,73630.3,-4.41,-31.39,-30.23,0,*5F
1511535984.38,31667,11.0,73630.5,-4.41,-31.17,-29.95,0,*57
1511535985.61,31668,11.0,73628.8,-4.41,-31.17,-30.01,0,*5D
1511535986.82,31669,11.0,73630.5,-4.41,-31.29,-30.33,0,*50
1511535988.03,31670,11.0,73628.0,-4.41,-31.29,-30.33,0,*58
1511535989.24,31671,11.0,73632.0,-4.41,-31.29,-30.33,0,*59
1511535990.46,31672,11.0,73630.0,-4.39,-31.29,-30.23,0,*54
1511535991.69,31673,11.0,73634.3,-4.41,-31.45,-30.39,0,*5B
1511535992.97,31674,11.0,73632.0,-4.43,-31.51,-30.39,0,*5B
1511535994.24,31675,11.0,73636.0,-4.43,-31.51,-30.55,0,*50
1511535995.44,31676,11.0,73632.5,-4.41,-31.33,-30.27,0,*50
1511535996.65,31677,11.0,73636.5,-4.41,-31.17,-30.11,0,*52
1511535997.85,31678,11.0,73634.5,-4.41,-31.17,-30.11,0,*5D
1511535999.08,31679,11.0,73628.5,-4.41,-31.17,-30.17,0,*5A
1511536000.28,31680,11.0,73630.3,-4.41,-31.17,-30.11,0,*5A
1511536001.48,31681,11.0,73632.8,-4.41,-31.05,-29.95,0,*5C
1511536002.74,31682,11.0,73638.0,-4.41,-31.23,-30.17,0,*59
1511536003.98,31683,11.0,73632.8,-4.41,-31.45,-30.39,0,*54
1511536005.23,31684,11.0,73634.3,-4.41,-31.39,-30.39,0,*58
1511536006.46,31685,11.0,73638.8,-4.41,-31.45,-30.51,0,*5C
1511536007.69,31686,11.0,73636.0,-4.41,-30.89,-29.83,0,*59
1511536008.89,31687,11.0,73634.8,-4.41,-30.83,-29.79,0,*57
1511536010.12,31688,11.0,73630.0,-4.41,-31.17,-30.01,0,*53
1511536011.36,31689,11.0,73632.0,-4.41,-31.23,-30.23,0,*55
1511536012.59,31690,11.0,73632.0,-4.41,-31.29,-30.39,0,*5C
1511536013.84,31691,11.0,73626.8,-4.39,-31.23,-30.11,0,*52
1511536015.07,31692,11.0,73632.5,-4.41,-31.17,-30.01,0,*58
1511536016.3,31693,11.0,73634.8,-4.39,-31.29,-30.33,0,*5A
1511536017.52,31694,11.0,73628.3,-4.43,-31.29,-30.27,0,*55
1511536018.75,31695,11.0,73630.5,-4.39,-31.29,-30.23,0,*5D
1511536020.01,31696,11.0,73630.8,-4.41,-31.23,-30.17,0,*5C
1511536021.24,31697,11.0,73630.0,-4.41,-31.29,-30.39,0,*5B
1511536022.45,31698,11.0,73626.0,-4.41,-31.29,-30.33,0,*5E
1511536023.71,31699,11.0,73630.0,-4.41,-31.23,-30.17,0,*53
1511536024.94,31700,11.0,73630.8,-4.39,-31.29,-30.33,0,*51
1511536026.18,31701,11.0,73628.3,-4.41,-31.23,-30.33,0,*55
1511536027.42,31702,11.0,73624.8,-4.41,-31.23,-30.33,0,*56
1511536028.69,31703,11.0,73624.3,-4.39,-31.39,-30.51,0,*57
1511536029.93,31704,11.0,73628.3,-4.41,-31.45,-30.51,0,*54
1511536031.18,31705,11.0,73630.0,-4.41,-31.39,-30.51,0,*5E
1511536032.45,31706,11.0,73630.3,-4.43,-31.51,-30.55,0,*55
1511536033.68,31707,11.0,73626.0,-4.43,-31.33,-30.45,0,*51
1511536034.91,31708,11.0,73626.3,-4.43,-31.33,-30.45,0,*5E
1511536036.14,31709,11.0,73624.3,-4.43,-31.29,-30.23,0,*54
1511536037.39,31710,11.0,73632.0,-4.43,-31.29,-30.39,0,*57
1511536038.64,31711,11.0,73628.5,-4.43,-31.29,-30.39,0,*56
1511536039.89,31712,11.0,73632.3,-4.43,-31.33,-30.39,0,*5E
1511536041.14,31713,11.0,73628.3,-4.43,-31.29,-30.39,0,*54
1511536042.37,31714,11.0,73630.3,-4.43,-31.29,-30.45,0,*58
1511536043.6,31715,11.0,73628.0,-4.43,-31.29,-30.45,0,*59
1511536044.83,31716,11.0,73628.5,-4.43,-31.29,-30.27,0,*5E
1511536046.09,31717,11.0,73632.3,-4.45,-31.39,-30.61,0,*5A
1511536047.34,31718,11.0,73632.0,-4.45,-31.39,-30.51,0,*56
1511536048.57,31719,11.0,73632.3,-4.45,-31.33,-30.51,0,*5D
1511536049.82,31720,11.0,73630.5,-4.45,-31.39,-30.51,0,*5D
1511536051.07,31721,11.0,73630.5,-4.43,-31.29,-30.39,0,*55
1511536052.33,31722,11.0,73632.3,-4.43,-31.29,-30.55,0,*5C
1511536053.58,31723,11.0,73630.8,-4.43,-31.29,-30.55,0,*5D
1511536054.81,31724,11.0,73636.0,-4.45,-31.29,-30.51,0,*58
1511536056.02,31725,11.0,73634.8,-4.45,-31.29,-30.33,0,*5D
1511536057.22,31726,11.0,73632.3,-4.45,-31.17,-30.33,0,*53
1511536058.45,31727,11.0,73630.8,-4.45,-31.29,-30.51,0,*5B
1511536059.71,31728,11.0,73632.8,-4.43,-31.23,-30.45,0,*5D
1511536060.95,31729,11.0,73638.5,-4.45,-31.11,-30.27,0,*5F
1511536062.17,31730,11.0,73640.5,-4.45,-30.95,-30.11,0,*5F
1511536063.4,31731,11.0,73638.5,-4.45,-30.95,-30.23,0,*5F
1511536064.66,31732,11.0,73638.5,-4.45,-30.77,-30.05,0,*54
1511536065.94,31733,11.0,73632.8,-4.43,-30.89,-30.17,0,*51
1511536067.17,31734,11.0,73630.3,-4.45,-31.11,-30.27,0,*53
1511536068.43,31735,11.0,73628.5,-4.43,-31.11,-30.33,0,*51
1511536069.72,31736,11.0,73632.5,-4.43,-30.95,-30.17,0,*59
1511536071.0,31737,11.0,73634.0,-4.43,-30.89,-30.17,0,*55
1511536072.28,31738,11.0,73636.3,-4.43,-30.89,-30.17,0,*5A
1511536073.54,31739,11.0,73630.5,-4.45,-30.95,-30.05,0,*53
1511536074.76,31740,11.0,73624.5,-4.43,-31.05,-30.23,0,*57
1511536076.01,31741,11.0,73626.3,-4.43,-30.95,-30.23,0,*5E
1511536077.25,31742,11.0,73636.3,-4.45,-31.11,-30.33,0,*57
1511536078.53,31743,11.0,73632.8,-4.43,-30.77,-30.17,0,*57
1511536079.81,31744,11.0,73628.5,-4.43,-30.73,-30.01,0,*53
1511536081.01,31745,11.0,73628.5,-4.45,-31.05,-30.27,0,*50
1511536082.24,31746,11.0,73624.3,-4.45,-30.95,-30.23,0,*5F
1511536083.52,31747,11.0,73624.3,-4.43,-30.77,-30.05,0,*50
1511536084.79,31748,10.94,73622.8,-4.43,-30.89,-30.05,0,*5E
1511536086.05,31749,11.0,73624.3,-4.43,-30.95,-30.23,0,*56
1511536087.27,31750,11.0,73626.0,-4.43,-31.01,-30.27,0,*56
1511536088.51,31751,11.0,73624.3,-4.45,-31.11,-30.33,0,*55
1511536089.77,31752,11.0,73620.0,-4.43,-31.11,-30.45,0,*51
1511536091.05,31753,11.0,73626.8,-4.43,-31.11,-30.39,0,*5B
1511536092.33,31754,11.0,73624.5,-4.43,-31.11,-30.39,0,*5C
1511536093.59,31755,11.0,73622.5,-4.43,-31.11,-30.45,0,*56
1511536094.84,31756,11.0,73624.3,-4.43,-31.11,-30.45,0,*55
1511536096.07,31757,11.0,73626.0,-4.45,-31.17,-30.51,0,*51
1511536097.31,31758,11.0,73626.5,-4.45,-31.29,-30.61,0,*50
1511536098.51,31759,11.0,73622.8,-4.45,-31.01,-30.45,0,*5D
1511536099.71,31760,11.0,73620.0,-4.45,-31.01,-30.45,0,*57
1511536100.95,31761,11.0,73622.0,-4.45,-31.17,-30.61,0,*57
1511536102.18,31762,11.0,73618.8,-4.45,-31.11,-30.45,0,*54
1511536103.41,31763,11.0,73622.0,-4.45,-30.95,-30.45,0,*58
1511536104.67,31764,11.0,73624.8,-4.45,-31.11,-30.51,0,*57